{"data":{"norad_id":41770,"intl_designator":"2016-058A","name":"PERUSAT 1","alt_names":[],"object_type":"PAYLOAD","status":"ACTIVE","operator":null,"country":"PERU","launch_date":"2016-09-16","launch_site_code":"FRGUI","launch_vehicle":null,"mission":null,"orbit_class":"UNKNOWN","rcs_meters":2.3328,"size_class":null,"mass_kg":null,"dimensions":null,"purposes":[],"wikipedia_slug":null,"has_3d_model":false,"image_url":null,"decayed_at":null,"tle_current":{"epoch":"2026-09-20T04:21:28.020384Z","epoch_age_seconds":72823,"freshness":"FRESH","line1":"1 41770U 16058A   26263.18157431  .00000223  00000+0  57734-4 0  9994","line2":"2 41770  98.1944 335.5655 0001409  82.8487 277.2872 14.58560490532949","mean_motion":14.5856049,"eccentricity":0.0001409,"inclination_deg":98.1944,"raan_deg":335.5655,"arg_perigee_deg":82.8487,"mean_anomaly_deg":277.2872,"bstar":5.7734e-5,"rev_number":53294,"period_min":98.727478899418,"perigee_km":696.82885479998,"apogee_km":698.82286113335,"semimajor_km":7075.9628579667,"source":"CELESTRAK","updated_at":"2026-09-20T09:00:14.153697Z"}}}